Weather in Yarega

Russia / Komi Republic     63°26′04″N   53°34′39″E
temp.,
°C
wind,
m/s
gust,
m/s
humid.,
%
clouds,
%
prec.,
mm/h
press.,
hPa
HPBL,
m
3 august, tue
tue300:00+13sw22970 0.0 100842
03:00+12sw229755 0.0 100936
06:00+15ssw2393100 0.0 1010169
09:00+20sse246999 0.0 1009658
12:00+25s3546100 0.0 10081676
15:00+26sse464170 0.0 10071699
18:00+24sse485627 0.0 1006699
21:00+18sse2984100 0.4 1006224
4 august, wed
wed400:00+17sse389799 1.3 1006232
03:00+16ssw2799100 1.3 1006173
06:00+18sw129476 0.0 1007257
09:00+18w2497100 0.5 1007256
12:00+17wsw139896 3.3 1008135
15:00+24wsw254495 3.3 10081825
18:00+20wsw266271 0.0 1009184
21:00+16sw2379100 0.0 100940
5 august, thu
thu500:00+16wnw2374100 0.0 101077
03:00+15nw2678100 0.0 1011188
06:00+16wnw2672100 0.0 1012265
09:00+19wnw344998 0.0 1012894
12:00+21wnw34360 0.0 10121858
15:00+21wnw44341 0.0 10132104
18:00+18nw47460 0.0 1014855
21:00+12nw49694 0.0 1017474
6 august, fri
fri600:00+8nw28865 0.0 1017235
03:00+7nw2895100 0.0 1018211
06:00+11nnw367956 0.0 1019454
09:00+14nnw456591 0.0 10191015
12:00+16n4549100 0.1 10191810
15:00+15nnw3454100 0.1 10191280
18:00+14n2661100 0.0 1020560
21:00+12n2772100 0.1 1020296
7 august, sat
sat700:00+11nnw3882100 0.1 1020342
03:00+10nnw3881100 0.1 1020452
06:00+11nnw3877100 0.1 1020489
09:00+14n466291 0.1 10201085
12:00+14n4660100 0.1 10201263
15:00+13n3865100 0.1 10211115
18:00+12n3874100 0.0 1021916
21:00+11nnw3979100 0.1 1020747